Regional Weather Roundup
Issued by NWS

Home | Current Version | Previous Version | Text Only | Print | Product List | Glossary Off
Versions: 1 2 3 4 5 6 7 8 9 10 11 12 13 14 15 16 17 18 19 20 21 22 23 24 25 26 27 28 29 30 31 32 33 34 35 36 37 38 39 40 41 42 43 44 45 46 47 48 49 50

000
ASUS43 KDMX 052207
RWRIA

WEATHER ROUNDUP FOR IOWA
NATIONAL WEATHER SERVICE DES MOINES IA
500 PM CDT TUE MAY 05 2015

NOTE: "FAIR" INDICATES FEW OR NO CLOUDS BELOW 12,000 FEET WITH NO
SIGNIFICANT WEATHER AND/OR OBSTRUCTIONS TO VISIBILITY.

* - THESE STATIONS ARE NOT NWS STATIONS...THUS NOT UNDER NWS
QUALITY CONTROL.  THEY ALSO DO NOT REPORT WEATHER SUCH
AS PRECIPITATION OR FOG.

IAZ001>003-012>014-020>022-031>034-043>046-052300-
   NORTHWEST IOWA

CITY           SKY/WX    TMP DP  RH WIND       PRES   REMARKS
CARROLL *      SUNNY     75  63  64 S13       30.02F
CHEROKEE *     PTSUNNY   73  63  68 S12       30.01F
DENISON *      MOSUNNY   75  64  69 S8G16     30.00F
LE MARS *      PTSUNNY   73  61  64 S10G17    30.00F
ORANGE CITY *  PTSUNNY   72  57  60 S10       30.01F
SHELDON *      PTSUNNY   68  64  88 E13       30.02F
SIOUX CITY     PTSUNNY   77  61  57 S14       29.98F
SPENCER        CLOUDY    62  60  93 E14       30.05F FOG
STORM LAKE *   MOSUNNY   73  61  64 S15       30.03F
$$

IAZ055>058-069>071-079>083-090>094-052300-
   SOUTHWEST IOWA

CITY           SKY/WX    TMP DP  RH WIND       PRES   REMARKS
ATLANTIC *     PTSUNNY   77  57  50 S13       30.02F
AUDUBON *      SUNNY     75  61  60 S12       30.04F
CLARINDA *     PTSUNNY   75  61  60 SE8       30.04S
COUNCIL BLFS * MOSUNNY   75  63  64 S14       30.01F
CRESTON *      MOSUNNY   75  59  57 S13       30.05F
HARLAN  *      MOSUNNY   75  57  53 S15G22    30.05F
LAMONI         PTSUNNY   78  58  49 S10       30.04F
RED OAK *      MOSUNNY   77  59  53 S14       30.02F
SHENANDOAH *   PTSUNNY   77  63  61 SE9G17    30.01F
$$

IAZ047>049-059>061-072>074-084-052300-
   CENTRAL IOWA

CITY           SKY/WX    TMP DP  RH WIND       PRES   REMARKS
AMES           TSTM      64  58  80 SW23G31   30.06F
ANKENY *       CLOUDY    72  66  83 CALM      30.05F
CHARITON *     MOSUNNY   79  59  50 S13       30.05F HX  80
DES MOINES     CLOUDY    77  65  66 VRB3      30.05F
GRINNELL*      PTSUNNY   75  63  64 SE7       30.07F
KNOXVILLE *    MOSUNNY   79  57  47 SW7       30.04F HX  80
MARSHALLTOWN   PTSUNNY   68  64  87 E17       30.07S FOG
PELLA *        MOSUNNY   77  64  65 SW9       30.06F
PERRY *          N/A     75  63  64 S10       30.04F
$$

IAZ004>006-015-016-023>025-035-036-052300-
   NORTH CENTRAL IOWA

CITY           SKY/WX    TMP DP  RH WIND       PRES   REMARKS
ALGONA *       CLOUDY    59  59 100 E14G22    30.09F
CLARION *      CLOUDY    61  61 100 E17       30.08F FOG
ESTHERVILLE    CLOUDY    58  57  97 E16       30.07F
FORT DODGE *   PTSUNNY   68  64  88 E13       30.06F
MASON CITY     CLOUDY    55  53  93 E14       30.13F
FOREST CITY *  CLOUDY    54  54 100 E9        30.11F
IOWA FALLS *   CLOUDY    61  59  94 E15       30.10F FOG
$$

IAZ007>011-017>019-026>030-037>042-050>054-066-052300-
   NORTHEAST IOWA

CITY           SKY/WX    TMP DP  RH WIND       PRES   REMARKS
CEDAR RAPIDS   CLOUDY    66  63  90 E15       30.10F FOG
CHARLES CITY * CLOUDY    55  55 100 E14       30.14F
CLINTON *      PTSUNNY   63  57  82 E14       30.17F
DECORAH *      CLOUDY    54  54 100 E10       30.16F
DUBUQUE        CLOUDY    57  54  89 E10       30.16F
MONTICELLO *   CLOUDY    59  59 100 E10G17    30.14F
OELWEIN *      CLOUDY    57  57 100 E14       30.14F
WATERLOO       CLOUDY    60  57  89 E10       30.11F
$$

IAZ064-065-067-068-078-052300-
   EAST CENTRAL IOWA

CITY           SKY/WX    TMP DP  RH WIND       PRES   REMARKS
DAVENPORT      PTSUNNY   68  62  81 E14       30.13F HAZE
IOWA CITY      MOSUNNY   69  64  84 NE13      30.10F HAZE
MT. PLEASANT * MOSUNNY   81  59  47 SE5       30.07F HX  81
MUSCATINE *    PTSUNNY   75  66  73 NE14      30.08F
QUAD CITIES    PTSUNNY   71  63  75 E15       30.11F HAZE
$$

IAZ062-063-075>077-085>089-095>099-052300-
   SOUTHEAST IOWA

CITY           SKY/WX    TMP DP  RH WIND       PRES   REMARKS
BURLINGTON     MOSUNNY   80  60  50 S6        30.08F HX  81
FAIRFIELD *    MOSUNNY   79  59  50 SE3G12    30.07F HX  80
FORT MADISON * SUNNY     81  59  47 SW8       30.08F HX  81
KEOKUK *       SUNNY     81  59  47 S6        30.07F HX  81
OSKALOOSA *      N/A     77  59  53 CALM      30.06F
CENTERVILLE *  SUNNY     79  59  50 S10       30.07F HX  80
OTTUMWA        MOSUNNY   79  58  48 S7        30.05F HX  80
WASHINGTON *   SUNNY     79  79 100 SE7       30.07F HX  83
$$

ABBREVIATIONS USED IN REMARKS
   TC - TEMPERATURES IN CELSIUS
  WCI - WIND CHILL INDEX
   HX - HEAT INDEX
  VSB - VISIBILITY
$$



USA.gov is the U.S. government's official web portal to all federal, state and local government web resources and services.